Flag for India Weather past 2 weeks in Yavatmal, Maharashtra, India

Now
73 °F

Passing clouds.


Feels Like: 72 °F
Forecast: 74 / 86 °F
Wind: 2 mph from Southwest

Location: Nagpur Sonegaon

Current Time: Jul 28, 2015 at 7:06:02 AM

Latest Report: Jul 28, 2015 at 6:10 AM


Visibility: 2 mi

Pressure: 29.74 "Hg

Humidity: 89%

Dew point: 70 °F

Location of YavatmalLocation

Historic Weather in Yavatmal — Graph

°F

Yavatmal temperature yesterday

Maximum temperature yesterday: 86 °F (at 11:40 AM)
Minimum temperature yesterday: 73 °F (at 4:40 AM)
Average temperature yesterday: 80 °F

Past Weeks' High & Low Weather Summary

 TemperatureHumidityPressure
High100 °F (Jul 14, 3:10 PM)100% (Jul 20, 7:40 AM)29.80 "Hg (Jul 20, 7:40 AM)
Low73 °F (Jul 24, 2:40 AM)44% (Jul 14, 5:40 PM)29.47 "Hg (Jul 15, 4:40 PM)
Average83 °F78%29.62 "Hg
* Reported Jul 13 5:40 AM — Jul 28 5:40 AM, Yavatmal, Weather by CustomWeather, © 2015

Note: Actual official high and low records may vary slightly from our data, if they occured in-between our weather recording intervals... More about our weather records

Advertising

Yavatmal weather history for previous 24 hours

 ConditionsComfort  
Time TempWeatherWind HumidityBarometerVisibility
5:40 AM
Tue, Jul 28
75 °FPassing clouds.3 mph83%29.74 "Hg2 mi
5:10 AM75 °FPassing clouds.No wind89%29.74 "Hg2 mi
4:40 AM75 °FPassing clouds.No wind89%29.74 "Hg2 mi
4:10 AM75 °FPassing clouds.No wind89%29.74 "Hg2 mi
3:40 AM75 °FPassing clouds.No wind89%29.74 "Hg2 mi
3:10 AM75 °FPassing clouds.No wind89%29.74 "Hg2 mi
2:40 AM75 °FPassing clouds.No wind89%29.74 "Hg3 mi
2:10 AM77 °FPassing clouds.No wind83%29.74 "Hg3 mi
1:10 AM77 °FPassing clouds.No wind83%29.74 "Hg3 mi
12:40 AM77 °FPassing clouds.No wind89%29.77 "Hg3 mi
12:10 AM77 °FPassing clouds.No wind83%29.77 "Hg3 mi
11:40 PM
Mon, Jul 27
77 °FPassing clouds.No wind83%29.77 "Hg3 mi
11:10 PM79 °FPassing clouds.No wind79%29.80 "Hg3 mi
10:40 PM79 °FPassing clouds.No wind79%29.80 "Hg3 mi
10:10 PM79 °FPartly cloudy.No wind79%29.80 "Hg3 mi
9:40 PM79 °FPartly cloudy.No wind79%29.77 "Hg3 mi
9:10 PM79 °FPartly cloudy.No wind84%29.77 "Hg3 mi
8:40 PM81 °FPartly cloudy.No wind79%29.77 "Hg3 mi
8:10 PM81 °FPartly cloudy.No wind74%29.77 "Hg3 mi
7:40 PM81 °FPartly cloudy.No wind74%29.77 "Hg3 mi
7:10 PM81 °FBroken clouds.No wind74%29.77 "Hg3 mi
6:40 PM81 °FBroken clouds.2 mph79%29.74 "Hg3 mi
6:10 PM81 °FBroken clouds.3 mph74%29.74 "Hg3 mi
5:40 PM82 °FBroken clouds.6 mph74%29.74 "Hg3 mi
5:10 PM84 °FBroken clouds.7 mph70%29.74 "Hg4 mi
4:40 PM84 °FBroken clouds.7 mph70%29.74 "Hg4 mi
4:10 PM84 °FBroken clouds.8 mph70%29.71 "Hg4 mi
3:40 PM86 °FBroken clouds.7 mph66%29.71 "Hg4 mi
3:10 PM86 °FBroken clouds.10 mph66%29.74 "Hg4 mi
2:40 PM86 °FPartly sunny.7 mph70%29.74 "Hg4 mi
1:40 PM86 °FPartly sunny.8 mph66%29.74 "Hg4 mi
1:10 PM86 °FScattered clouds.12 mph66%29.74 "Hg4 mi
12:40 PM86 °FPartly sunny.9 mph70%29.74 "Hg4 mi
12:10 PM86 °FScattered clouds.9 mph66%29.74 "Hg4 mi
11:40 AM86 °FScattered clouds.6 mph70%29.77 "Hg4 mi
10:40 AM84 °FScattered clouds.12 mph70%29.77 "Hg4 mi
10:10 AM84 °FScattered clouds.12 mph70%29.77 "Hg4 mi
9:10 AM82 °FScattered clouds.8 mph79%29.77 "Hg4 mi
8:10 AM79 °FWarm.2 mph84%29.77 "HgN/A
7:40 AM79 °FPartly sunny.5 mph84%29.74 "Hg3 mi
7:10 AM77 °FPartly sunny.No wind89%29.74 "Hg3 mi
Weather by CustomWeather, © 2015

See weather overviewHow to use our weather pages